Temperature
21 20 20 20 19 19 20 21 21 21 21 22 22 21 20 19 20 20 20 20 20 20 20 20 20 20 20 20 20 20 20 20 20 20 20 19 19 19 19 19 20 20 19 19 19 19 19 19 19
21 21 20 20 19 19 20 20 20 21 22 22 22 21 20 19 19 19 20 20 20 20 20 20 20 20 20 20 20 20 20 20 20 20 19 19 19 19 19 19 19 19 19 19 19 19 19 19 19
21 21 21 19 19 20 21 20 20 21 22 22 21 20 19 19 19 20 20 20 20 20 20 20 20 20 20 20 20 20 20 20 20 19 19 19 19 19 19 19 19 19 19 19 19 19 19 19 19
22 21 21 19 20 19 20 20 20 21 21 21 20 19 19 18 19 20 20 20 20 20 20 20 20 20 20 20 19 19 19 19 19 19 19 19 19 19 19 19 19 19 19 19 19 19 19 19 19
22 22 20 20 20 20 19 20 20 20 20 19 20 19 18 18 19 19 19 19 19 19 19 19 19 19 19 19 19 19 19 19 19 19 19 19 19 19 19 19 19 19 19 19 19 19 19 19 18
22 20 19 20 20 19 19 19 19 19 19 18 19 18 17 18 19 19 19 19 18 18 19 19 19 19 19 19 19 19 19 19 19 19 19 19 19 19 19 19 19 19 19 19 19 19 18 18 18
22 19 20 20 20 19 20 19 18 18 18 17 18 18 17 18 18 18 18 18 18 18 18 18 18 18 18 18 19 19 19 19 19 19 19 19 19 19 19 19 19 19 19 19 19 19 18 18 18
23 19 20 19 20 20 19 19 18 18 17 17 18 17 17 17 17 18 18 18 18 18 18 18 18 18 18 18 18 18 18 19 19 19 19 19 19 19 19 19 19 19 19 19 19 18 18 18 18
23 19 20 20 19 19 18 19 18 18 17 17 17 17 17 17 17 17 18 17 17 17 17 17 17 17 17 18 18 18 18 18 18 18 18 18 18 18 18 18 18 18 18 18 18 18 18 18 18
22 19 20 20 19 18 18 18 18 18 17 17 16 16 17 17 17 17 17 17 17 17 17 17 17 17 17 17 17 18 18 18 18 18 18 18 18 18 18 18 18 18 18 18 18 18 18 18 18
21 20 19 19 19 18 17 17 17 17 16 16 16 16 17 17 17 17 17 17 17 17 17 17 17 17 17 17 17 17 17 17 18 18 18 18 18 18 18 18 18 18 18 18 18 18 18 18 18
19 19 19 19 19 18 18 17 17 17 17 17 17 17 17 17 17 16 16 16 16 16 16 16 16 16 16 17 17 17 17 17 17 17 18 18 18 18 18 18 18 18 18 18 18 18 18 18 18
19 19 18 18 18 18 18 17 17 16 17 17 17 17 16 16 16 16 16 16 16 16 16 16 16 16 16 16 16 16 16 17 17 17 17 17 17 17 17 18 18 18 18 18 18 18 18 18 18
19 18 18 18 18 18 17 17 17 16 17 17 17 16 16 16 16 16 16 15 15 15 15 15 15 15 15 16 16 16 16 16 16 17 17 17 17 17 17 17 18 18 18 18 18 18 18 18 18
19 18 18 18 18 18 18 16 16 16 17 16 16 16 16 15 15 15 15 14 14 14 14 15 15 15 15 15 15 15 15 16 16 16 16 17 17 17 17 17 17 18 18 18 18 17 17 17 18
19 18 18 18 18 18 18 16 16 16 16 16 16 15 15 15 15 14 14 14 14 14 14 14 14 14 14 14 15 15 15 15 15 15 16 16 16 16 17 17 17 17 17 17 17 17 17 17 17
19 18 18 18 18 18 17 16 16 16 16 15 15 15 15 15 15 14 14 14 13 13 13 13 13 13 14 14 14 14 14 14 15 15 15 15 16 16 16 16 17 17 17 17 17 17 17 17 17
20 19 19 18 17 17 16 15 15 15 15 15 15 15 15 15 14 14 14 13 13 13 13 13 13 13 13 14 14 14 14 14 14 14 15 15 15 15 16 16 16 16 17 17 17 17 17 17 17
21 20 19 18 17 16 15 15 15 15 15 15 15 15 14 14 14 14 13 13 13 13 13 13 13 13 13 13 13 14 14 14 14 14 14 14 15 15 15 16 16 16 16 16 17 17 17 17 17
19 19 18 17 17 16 15 15 15 15 15 15 14 14 14 14 14 14 13 13 13 12 12 12 13 13 13 13 13 13 13 13 13 14 14 14 14 14 15 15 15 16 16 16 16 16 17 17 16
19 19 18 17 16 15 15 15 15 14 14 14 14 14 14 14 14 13 13 13 12 12 12 12 12 12 12 12 12 12 13 13 13 13 13 14 14 14 14 15 15 15 15 16 16 16 16 16 16
19 20 19 17 15 14 15 14 14 13 14 14 14 14 14 14 13 13 13 13 12 12 12 12 12 12 12 12 12 12 12 12 12 12 13 13 14 14 14 14 15 15 15 15 15 16 16 16 16
19 18 18 17 15 14 14 14 13 13 13 13 14 14 14 14 13 13 13 12 12 12 12 12 12 12 12 12 12 12 12 12 12 12 13 13 13 13 14 14 14 14 15 15 15 15 15 15 16
18 16 15 13 13 14 15 14 13 12 13 13 14 14 14 14 14 13 13 13 12 12 12 12 12 12 12 12 12 12 12 12 12 12 12 13 13 13 13 14 14 14 14 14 15 15 15 15 15
16 15 14 15 14 14 14 14 13 14 13 14 14 14 14 14 14 13 13 13 13 12 12 12 12 12 12 12 12 11 11 11 11 11 12 12 13 13 13 14 14 14 14 14 14 15 15 15 15
16 15 15 16 14 13 14 14 14 14 15 15 15 15 14 14 14 13 13 13 12 12 12 12 12 12 12 11 11 11 11 11 11 11 12 12 12 12 13 13 13 14 14 14 14 14 15 15 15
17 14 14 13 14 14 13 14 14 14 14 14 14 14 14 14 14 14 13 13 13 12 12 12 12 12 11 11 11 11 11 11 11 11 11 12 12 12 13 13 13 13 14 14 14 14 14 14 14
16 13 12 13 14 14 14 14 13 14 13 13 13 14 15 14 14 14 13 13 13 12 12 12 12 11 11 11 11 11 11 11 11 11 11 12 12 12 12 13 13 13 13 13 13 14 14 14 14
16 15 12 11 12 13 13 13 14 14 14 13 14 15 15 15 14 14 14 13 13 13 12 12 12 12 11 11 11 11 11 11 11 11 11 11 11 12 12 12 12 13 13 13 13 13 13 14 14
17 16 12 14 13 11 11 12 14 14 14 14 15 15 15 15 14 14 14 14 13 13 12 12 12 11 11 11 11 11 11 11 11 11 11 11 11 11 12 12 12 12 12 13 13 13 13 13 13
Wind_Speed
6 5 3 2 4 5 5 6 4 4 4 4 6 6 6 5 2 0 2 5 6 6 8 10 12 12 11 11 10 10 10 9 9 9 9 9 8 8 8 7 7 6 6 5 5 4 4 5 6
6 3 2 3 5 4 5 7 7 5 2 2 5 6 6 6 3 2 1 3 6 7 8 9 11 11 11 10 10 10 9 9 9 8 8 8 8 7 7 6 6 6 5 5 4 3 3 4 4
5 2 3 4 4 3 2 5 3 4 7 5 5 6 5 4 4 1 1 5 5 6 6 8 10 10 10 10 10 9 9 8 8 8 8 8 8 7 7 6 6 5 5 5 4 3 2 2 3
3 3 4 6 6 3 2 4 4 4 7 9 4 5 5 6 5 1 4 5 5 4 5 7 9 9 9 9 9 9 9 9 8 8 8 8 8 7 7 7 6 6 5 4 4 3 2 2 2
3 4 6 5 4 3 4 6 7 6 5 8 6 5 5 8 9 8 6 4 2 1 2 4 7 9 9 9 9 9 9 9 9 9 9 9 8 8 8 8 7 6 6 5 4 4 3 2 1
4 4 5 2 1 1 3 6 6 8 6 7 7 4 4 7 10 8 7 6 5 5 5 4 3 5 7 8 9 9 9 9 9 9 9 9 9 9 9 8 8 7 7 6 5 5 4 3 2
4 4 4 4 2 2 2 4 5 5 7 8 6 4 3 8 9 8 8 8 7 7 6 7 7 5 5 6 8 9 10 11 10 10 10 10 10 9 9 9 9 8 8 7 7 6 6 5 3
4 5 4 2 2 1 3 3 4 7 5 5 5 5 4 6 6 7 8 9 8 7 6 7 8 8 8 7 8 9 11 12 12 12 12 11 11 11 10 10 10 10 9 9 8 8 7 6 5
4 5 3 3 4 2 2 4 4 4 5 6 6 5 4 4 6 8 8 8 6 6 5 5 5 7 8 8 8 9 10 11 11 12 12 12 11 11 10 11 11 11 11 10 10 9 8 7 6
4 4 2 2 4 5 4 4 4 4 5 5 6 7 6 7 8 9 8 7 6 6 5 4 4 5 6 7 8 8 8 8 8 8 9 10 10 11 11 11 13 13 13 12 12 11 9 8 5
4 4 3 4 5 6 5 4 3 5 5 3 4 4 6 8 9 8 7 5 5 4 5 6 5 5 5 5 6 6 6 6 6 7 8 8 8 9 9 9 11 12 12 11 10 9 8 6 5
6 5 4 4 4 5 5 5 5 4 4 3 4 4 5 8 7 7 6 6 6 6 6 6 5 5 5 5 5 4 4 5 5 6 7 6 4 5 6 6 8 9 9 8 8 7 7 7 7
5 4 5 8 10 8 8 6 6 4 4 5 6 7 7 7 6 6 6 6 7 7 8 8 6 5 5 4 4 4 3 5 6 7 7 7 4 4 5 5 7 8 9 7 6 6 6 6 6
6 8 7 6 7 4 7 4 4 3 3 6 7 7 6 6 6 6 7 7 8 8 9 8 8 6 5 4 4 4 5 6 6 6 8 8 7 5 4 5 5 6 8 9 7 6 6 5 5
7 8 5 2 3 3 6 5 3 2 5 7 6 5 5 5 6 6 6 6 7 8 8 8 8 6 6 6 5 5 6 6 5 6 8 8 8 7 5 5 6 6 8 7 6 6 5 5 5
5 5 2 3 3 3 4 2 0 3 6 6 4 4 5 5 5 5 6 6 7 8 8 9 9 9 8 7 6 5 6 6 5 6 7 8 8 8 5 5 6 6 6 5 5 4 4 5 5
2 3 4 3 4 3 4 3 1 3 6 5 3 3 4 5 6 6 7 7 8 8 8 8 8 8 8 8 6 6 6 5 6 6 6 7 7 7 5 5 5 5 4 5 6 4 4 4 4
5 4 4 4 4 4 4 3 2 3 5 4 2 2 3 5 6 7 7 8 8 7 8 8 8 8 8 7 6 5 5 4 4 5 5 7 6 6 5 4 4 4 4 5 5 5 4 3 4
5 5 3 1 3 4 4 4 2 2 3 2 1 2 4 5 6 7 8 8 8 8 9 9 9 9 7 5 5 5 5 5 4 4 5 6 6 5 4 4 4 4 5 6 7 5 5 4 3
6 5 4 4 4 4 4 1 1 1 2 2 1 2 4 6 8 8 8 8 8 8 9 9 9 9 8 6 5 4 5 4 4 4 5 6 6 5 4 4 4 4 5 6 7 6 4 4 5
3 4 4 4 4 4 4 3 3 2 0 1 1 2 4 5 7 8 9 8 8 9 9 9 9 9 9 8 6 5 4 3 3 4 4 4 6 5 4 4 4 4 5 6 7 7 8 6 5
1 0 3 6 4 0 2 3 6 4 3 3 4 4 6 6 6 7 8 9 9 9 9 9 9 9 8 7 6 7 5 4 4 4 4 5 5 5 4 4 4 5 4 5 6 7 6 6 5
2 4 4 3 5 2 1 1 7 1 5 7 6 6 6 6 6 7 8 8 8 8 8 8 9 9 8 8 7 7 6 5 5 5 5 5 5 4 4 4 4 4 4 5 6 6 7 6 6
5 7 7 6 5 1 2 4 6 4 6 5 4 5 6 6 7 7 7 7 7 7 8 8 9 9 9 9 8 7 7 7 7 6 6 6 5 4 5 4 4 4 4 5 6 6 7 7 7
7 6 5 5 5 4 2 3 7 5 6 5 5 6 6 6 6 7 8 8 8 9 9 8 9 9 9 9 8 8 7 7 6 6 5 6 5 4 6 5 4 4 4 5 5 5 6 7 8
4 6 6 2 3 5 3 4 7 4 3 4 4 5 5 6 6 7 7 7 7 8 8 8 8 8 9 9 9 8 8 5 5 5 5 5 4 5 5 6 5 4 3 3 3 4 5 5 7
4 3 5 6 1 3 6 7 7 2 3 4 5 5 6 7 7 7 7 6 6 7 7 7 7 8 8 8 8 8 9 8 7 6 6 5 5 5 6 6 5 5 4 3 2 3 4 4 5
4 8 5 4 2 4 7 6 5 6 8 7 6 7 8 7 6 7 6 6 6 6 6 6 6 6 6 7 7 7 8 8 8 7 8 8 8 7 8 7 7 6 5 4 2 1 2 3 4
3 4 6 4 4 4 4 7 6 7 7 8 8 8 8 7 7 7 6 5 5 5 5 5 6 5 6 7 7 8 8 8 8 7 8 8 7 8 8 8 7 7 7 6 4 3 1 2 3
3 5 6 3 2 4 3 7 6 7 7 7 8 7 7 6 6 6 6 5 5 5 5 5 5 5 5 6 6 7 7 7 8 8 8 8 8 8 8 7 7 7 7 7 6 4 3 1 1
Wind_Direction
150 131 99 66 49 47 21 344 352 19 45 31 54 70 79 66 66 140 347 131 135 141 158 166 170 170 170 169 167 165 161 158 157 156 157 157 157 156 156 156 155 153 151 147 142 131 116 102 93
122 117 80 58 69 51 2 349 19 29 75 113 57 59 63 54 39 57 98 141 138 145 153 164 172 173 175 175 174 173 171 170 168 168 169 169 168 167 166 167 167 166 164 160 157 152 132 110 96
124 82 78 61 68 82 15 348 14 43 39 40 56 48 55 31 2 329 190 141 133 143 155 171 175 176 178 180 182 181 180 179 179 179 179 180 178 179 180 180 181 180 178 176 172 171 155 123 100
105 56 52 63 60 27 14 335 339 7 34 26 54 55 55 21 351 354 111 123 133 142 161 182 183 182 184 186 188 188 187 188 189 189 187 186 186 190 192 192 191 191 192 191 187 190 185 157 110
70 79 62 58 45 17 17 4 10 31 39 21 42 66 37 3 16 42 68 83 92 100 155 203 197 195 196 198 197 197 197 198 199 200 198 196 197 199 200 200 200 201 204 206 206 211 212 206 166
63 70 82 92 54 8 21 14 15 32 29 17 22 68 49 7 23 29 46 54 51 46 32 1 275 233 222 215 212 211 211 211 211 211 210 209 209 208 208 209 209 210 210 213 216 224 230 233 244
102 88 110 129 108 25 46 34 29 18 32 15 359 60 44 14 17 33 48 52 52 43 31 12 357 331 293 262 243 233 227 224 223 222 221 220 218 217 217 218 218 219 218 218 222 230 237 244 252
121 100 93 118 132 76 11 63 41 28 35 13 25 53 26 357 17 47 55 52 46 35 21 8 359 349 333 310 279 261 247 238 232 230 229 227 226 227 228 226 226 227 224 225 228 232 238 245 252
91 80 132 183 164 137 44 84 62 43 55 46 46 57 41 26 37 51 50 47 42 31 15 4 348 338 330 317 299 289 277 262 251 246 242 237 232 231 234 233 232 234 233 232 232 235 240 245 252
78 110 170 158 146 128 85 74 95 73 49 47 50 49 46 48 47 51 46 40 27 10 357 354 340 329 326 319 316 312 306 300 281 264 257 249 237 232 234 236 239 239 238 238 236 236 239 244 246
81 117 116 90 107 112 99 75 51 106 60 50 72 48 40 47 44 43 36 23 8 351 348 343 332 327 327 320 318 311 307 304 296 277 262 251 242 238 237 234 241 246 245 240 239 239 233 226 227
89 64 93 113 109 96 106 108 77 61 93 90 91 72 51 45 35 28 23 11 358 354 345 336 329 325 326 322 313 302 303 297 289 284 274 255 240 232 229 229 229 231 236 230 224 222 222 221 224
86 93 68 89 87 89 91 88 98 74 88 86 75 59 52 46 33 20 13 7 0 353 343 336 328 324 323 320 313 316 298 286 285 288 281 259 246 241 231 231 229 226 224 222 217 217 217 217 222
100 96 94 84 85 88 95 78 84 98 89 75 67 56 47 44 29 19 9 0 352 343 336 331 326 326 329 316 304 299 298 295 287 278 277 276 257 247 238 236 231 227 223 221 216 214 215 216 214
99 93 74 68 84 120 104 56 45 110 92 77 66 57 45 34 23 12 352 344 338 332 329 330 328 337 327 315 305 307 298 297 287 278 276 276 266 252 243 239 236 228 221 216 214 214 212 217 218
83 93 134 209 149 148 118 139 259 105 99 86 68 48 30 9 1 350 343 338 333 331 331 329 335 332 323 313 304 302 299 297 288 285 278 271 265 253 241 238 240 228 215 206 204 202 204 219 219
97 165 205 196 178 141 140 167 180 110 111 101 72 33 9 349 343 340 339 336 332 330 328 327 327 327 325 320 312 303 300 295 291 289 282 276 270 257 239 233 236 226 214 210 214 200 191 210 222
202 201 196 197 173 121 128 144 111 97 115 114 78 13 344 333 325 327 332 333 332 330 330 329 329 330 329 326 322 314 307 296 294 289 289 289 283 271 251 241 237 225 222 219 208 198 194 196 207
156 153 153 127 107 113 138 142 146 124 111 111 43 338 327 319 317 328 329 330 333 337 338 334 335 334 337 334 331 322 315 309 304 296 297 297 290 280 255 251 241 224 222 221 210 195 197 199 165
100 118 116 80 63 97 113 124 198 185 184 193 216 301 314 319 328 331 331 335 336 332 333 334 336 333 335 329 313 290 288 292 288 297 307 303 297 287 267 241 238 228 226 225 215 196 185 192 177
71 144 162 145 69 63 87 326 251 256 275 247 271 287 299 308 318 322 326 329 332 333 332 336 331 331 331 333 327 322 318 313 321 323 317 310 307 294 276 260 245 232 223 225 219 208 193 193 188
116 277 134 132 119 209 136 281 275 242 272 270 274 292 296 303 312 315 321 326 328 328 329 333 333 333 333 337 341 342 339 325 310 311 306 310 313 310 297 277 253 238 229 228 225 216 207 189 187
133 57 81 110 124 72 49 212 290 285 262 264 262 272 285 293 302 309 314 316 319 325 331 335 337 339 339 342 344 342 336 322 317 319 322 325 324 315 312 296 271 251 238 232 226 218 208 200 192
107 70 57 51 72 3 236 188 282 234 230 251 252 264 280 292 301 308 313 316 320 327 334 338 342 340 343 346 347 346 339 334 334 337 337 333 328 322 322 310 289 269 252 238 230 221 210 209 203
65 76 32 6 8 268 277 215 256 251 230 226 238 256 274 289 299 306 313 319 324 328 332 336 342 340 342 348 350 346 342 338 338 336 334 334 334 330 330 327 310 293 274 252 230 221 217 211 206
73 119 141 201 251 291 321 255 261 261 245 229 233 253 276 290 294 298 300 308 316 320 328 336 340 339 344 350 349 349 350 348 344 342 343 338 332 327 330 332 327 317 308 284 242 227 219 210 209
109 94 148 131 162 300 294 290 305 233 255 246 253 266 275 281 288 294 302 308 311 319 325 330 337 342 346 349 350 354 359 1 357 354 353 350 346 344 346 342 343 340 338 327 269 232 226 208 206
96 138 92 99 113 307 304 293 269 261 253 251 251 257 268 279 287 295 302 306 308 312 319 333 341 342 344 350 353 359 359 1 2 5 6 1 355 354 354 356 358 358 353 343 327 270 232 207 203
102 81 96 102 140 155 299 285 232 230 233 234 242 247 257 268 279 285 294 303 310 319 327 336 342 347 349 351 351 356 355 357 3 7 2 358 357 358 -0 360 2 5 5 359 357 350 291 208 197
157 150 144 142 201 163 197 271 267 238 239 229 241 250 256 262 273 281 289 305 317 323 327 331 337 342 342 346 352 355 355 358 4 1 356 356 359 360 0 359 4 6 6 5 9 10 17 64 153
Height
1527 1527 1528 1530 1532 1540 1544 1539 1533 1531 1531 1531 1530 1531 1532 1536 1539 1543 1539 1538 1541 1543 1544 1546 1547 1549 1551 1552 1553 1554 1555 1556 1556 1557 1557 1557 1558 1558 1558 1558 1559 1559 1559 1559 1560 1560 1560 1560 1560
1528 1528 1530 1531 1539 1552 1548 1540 1536 1534 1533 1532 1532 1533 1535 1537 1538 1539 1539 1540 1542 1544 1546 1547 1548 1550 1551 1552 1553 1554 1555 1555 1556 1556 1557 1557 1557 1558 1558 1558 1558 1559 1559 1559 1560 1560 1560 1560 1560
1528 1529 1532 1533 1543 1552 1548 1541 1538 1535 1534 1533 1535 1536 1538 1541 1541 1541 1542 1542 1544 1546 1547 1548 1549 1550 1551 1552 1553 1554 1554 1555 1555 1556 1556 1556 1557 1557 1557 1558 1558 1558 1559 1559 1559 1560 1560 1560 1560
1530 1532 1533 1540 1548 1547 1544 1541 1538 1536 1535 1536 1537 1540 1543 1545 1544 1544 1544 1544 1546 1547 1548 1549 1550 1551 1552 1552 1553 1554 1554 1554 1555 1555 1555 1555 1556 1556 1556 1557 1557 1558 1558 1558 1559 1559 1560 1560 1560
1531 1532 1539 1547 1548 1546 1544 1542 1540 1539 1540 1541 1540 1543 1545 1546 1546 1546 1546 1546 1547 1549 1550 1551 1551 1552 1552 1552 1553 1553 1553 1554 1554 1554 1554 1555 1555 1555 1555 1556 1556 1557 1557 1558 1558 1559 1559 1559 1560
1532 1533 1547 1554 1550 1546 1545 1544 1543 1543 1543 1543 1543 1545 1549 1549 1547 1547 1547 1547 1548 1549 1550 1550 1551 1551 1552 1552 1552 1552 1552 1553 1553 1553 1553 1554 1554 1554 1554 1555 1555 1556 1556 1556 1557 1558 1558 1559 1559
1533 1538 1547 1550 1551 1549 1547 1546 1547 1547 1547 1547 1547 1548 1550 1550 1549 1548 1548 1548 1548 1549 1550 1550 1550 1551 1551 1551 1551 1551 1551 1551 1552 1552 1552 1552 1552 1553 1553 1553 1554 1554 1555 1555 1556 1556 1557 1558 1558
1532 1538 1547 1550 1551 1550 1549 1549 1550 1550 1550 1550 1549 1551 1552 1552 1550 1549 1549 1549 1549 1549 1549 1549 1549 1549 1549 1549 1549 1549 1549 1549 1550 1550 1550 1550 1551 1551 1551 1552 1552 1553 1553 1554 1554 1555 1556 1557 1557
1533 1542 1550 1549 1549 1550 1549 1550 1552 1553 1552 1552 1552 1554 1554 1553 1552 1551 1550 1550 1549 1549 1549 1549 1549 1548 1547 1547 1547 1547 1547 1547 1547 1547 1548 1548 1548 1549 1549 1550 1550 1551 1552 1552 1553 1553 1554 1555 1556
1534 1545 1545 1544 1545 1547 1549 1551 1553 1554 1554 1555 1555 1556 1555 1554 1553 1552 1551 1551 1550 1550 1549 1548 1547 1546 1545 1544 1544 1544 1543 1543 1544 1544 1545 1545 1546 1546 1547 1547 1548 1549 1549 1550 1551 1551 1552 1553 1554
1535 1542 1543 1545 1545 1547 1550 1552 1554 1555 1557 1557 1557 1557 1557 1556 1554 1553 1553 1552 1551 1550 1548 1547 1546 1544 1543 1541 1540 1540 1540 1540 1540 1541 1542 1542 1543 1543 1544 1544 1545 1546 1547 1548 1548 1549 1550 1551 1552
1538 1542 1543 1546 1547 1548 1550 1553 1555 1556 1558 1559 1558 1558 1557 1556 1555 1555 1554 1552 1551 1549 1548 1546 1544 1542 1541 1539 1538 1537 1537 1537 1537 1537 1538 1539 1539 1540 1541 1541 1542 1543 1544 1545 1546 1547 1548 1549 1550
1540 1544 1546 1547 1548 1550 1552 1554 1556 1558 1559 1559 1559 1559 1558 1557 1556 1555 1554 1552 1550 1548 1546 1544 1542 1540 1538 1537 1535 1534 1533 1533 1532 1533 1533 1534 1535 1536 1537 1538 1539 1540 1541 1542 1543 1544 1545 1546 1548
1542 1545 1548 1550 1550 1553 1554 1556 1557 1560 1560 1560 1560 1559 1559 1558 1557 1555 1553 1551 1549 1546 1544 1542 1539 1537 1535 1533 1532 1531 1530 1529 1529 1529 1529 1530 1530 1531 1532 1533 1535 1536 1538 1539 1540 1541 1543 1544 1545
1544 1548 1551 1552 1552 1554 1555 1560 1560 1560 1560 1560 1560 1560 1560 1559 1557 1555 1553 1550 1547 1544 1542 1539 1536 1534 1532 1530 1528 1527 1526 1525 1525 1524 1525 1525 1526 1527 1528 1529 1530 1532 1534 1535 1536 1538 1539 1541 1542
1546 1552 1557 1553 1553 1555 1559 1565 1561 1561 1561 1561 1561 1560 1560 1558 1557 1555 1552 1549 1546 1543 1539 1536 1533 1531 1529 1526 1524 1523 1521 1521 1520 1520 1520 1521 1521 1522 1523 1524 1526 1527 1529 1531 1532 1534 1535 1537 1539
1551 1557 1557 1555 1553 1554 1558 1563 1561 1561 1561 1561 1561 1561 1560 1558 1556 1554 1551 1548 1544 1541 1537 1534 1531 1528 1526 1523 1521 1519 1517 1516 1516 1516 1516 1517 1517 1517 1518 1519 1521 1523 1524 1526 1528 1530 1531 1534 1536
1554 1554 1554 1556 1553 1555 1559 1562 1561 1561 1561 1561 1561 1560 1559 1558 1556 1553 1550 1547 1543 1540 1536 1533 1530 1526 1523 1521 1518 1516 1514 1513 1512 1512 1512 1512 1512 1513 1513 1515 1516 1517 1519 1521 1523 1525 1527 1529 1532
1543 1549 1554 1554 1553 1557 1560 1562 1562 1561 1561 1561 1561 1560 1559 1557 1556 1553 1550 1546 1542 1539 1535 1531 1528 1525 1521 1518 1515 1513 1511 1510 1509 1508 1508 1508 1508 1508 1509 1510 1511 1512 1514 1516 1518 1520 1522 1525 1528
1545 1552 1555 1556 1555 1558 1563 1564 1562 1561 1561 1561 1560 1559 1558 1557 1554 1552 1549 1545 1542 1538 1534 1530 1527 1523 1520 1517 1514 1511 1508 1507 1506 1505 1504 1504 1504 1504 1505 1505 1507 1508 1509 1511 1513 1515 1517 1519 1522
1549 1552 1554 1558 1560 1561 1564 1567 1563 1561 1560 1560 1560 1559 1558 1556 1554 1551 1548 1545 1541 1537 1533 1530 1526 1522 1519 1516 1512 1509 1507 1505 1503 1502 1501 1501 1501 1501 1501 1501 1502 1503 1505 1506 1507 1509 1512 1514 1517
1553 1548 1550 1556 1564 1570 1567 1578 1565 1562 1560 1559 1558 1558 1557 1555 1553 1551 1548 1544 1541 1537 1534 1530 1526 1522 1519 1515 1511 1508 1505 1503 1501 1500 1499 1498 1498 1497 1497 1497 1498 1499 1500 1501 1502 1504 1506 1509 1511
1550 1549 1551 1556 1564 1572 1571 1577 1570 1562 1562 1559 1557 1556 1556 1555 1553 1550 1548 1545 1541 1538 1534 1530 1526 1522 1519 1515 1511 1508 1505 1503 1500 1499 1497 1496 1495 1495 1494 1494 1494 1494 1495 1496 1498 1499 1501 1503 1505
1548 1554 1559 1565 1570 1579 1571 1577 1572 1566 1559 1556 1555 1555 1554 1554 1552 1550 1547 1545 1541 1538 1534 1530 1526 1523 1519 1515 1511 1508 1505 1502 1499 1497 1496 1494 1493 1492 1492 1491 1490 1490 1491 1492 1493 1494 1496 1498 1500
1552 1564 1579 1578 1585 1581 1571 1573 1569 1556 1554 1553 1553 1553 1553 1552 1551 1549 1547 1544 1541 1538 1534 1531 1527 1523 1519 1515 1512 1508 1505 1502 1498 1496 1495 1493 1492 1491 1489 1488 1487 1487 1487 1487 1488 1489 1491 1493 1495
1556 1563 1580 1585 1588 1584 1572 1573 1562 1552 1551 1551 1552 1552 1552 1551 1550 1548 1546 1544 1541 1538 1535 1531 1527 1524 1520 1516 1512 1509 1505 1502 1499 1497 1495 1493 1491 1490 1488 1486 1485 1484 1484 1484 1484 1485 1486 1488 1490
1557 1565 1567 1579 1580 1585 1578 1568 1556 1551 1551 1551 1551 1551 1550 1550 1549 1548 1546 1544 1541 1538 1535 1532 1528 1525 1521 1517 1513 1510 1506 1503 1500 1498 1496 1493 1491 1489 1487 1485 1484 1483 1482 1481 1481 1481 1482 1484 1485
1554 1563 1573 1579 1585 1588 1581 1573 1566 1553 1551 1549 1549 1549 1549 1548 1548 1547 1545 1543 1541 1538 1536 1532 1529 1526 1522 1519 1515 1511 1508 1504 1501 1499 1496 1494 1491 1489 1487 1485 1483 1481 1480 1480 1479 1479 1479 1480 1482
1559 1564 1574 1582 1583 1590 1589 1577 1553 1549 1546 1547 1546 1546 1547 1547 1546 1545 1544 1543 1541 1538 1536 1533 1530 1527 1523 1520 1516 1513 1509 1506 1503 1500 1497 1495 1492 1489 1487 1484 1483 1481 1480 1478 1477 1477 1477 1478 1479
1553 1559 1570 1577 1580 1586 1590 1578 1546 1544 1543 1544 1544 1545 1545 1545 1545 1544 1543 1542 1540 1538 1535 1533 1530 1527 1524 1521 1518 1514 1511 1508 1505 1501 1499 1496 1493 1490 1488 1485 1483 1482 1480 1478 1477 1475 1475 1476 1477